EW5808 Cabra ES current weather conditions

sailwx.info

Wind from 285 at 2 knots gusting 4

Air temperature 23.3° C
Dewpoint 13.8° C

Last reported at 2018-Apr-25 16:03 UTC.
Time now 2018-Apr-25 16:19 UTC

Location: N 37°28' W 004°27'.
View on Google Maps.

See reports from other nearby stations

  
Tides and Currents Weather Stations Pressure Air Temp Water Temp Dewpoint Dewpoint Depression Visibility Wind Speed Wind Dir Waves Ship Positions
date/time (UTC)wind fromknots sea level pressurealtimeterstation pressurevisibilityair tempwater tempwave heightnotes
2018-Apr-25 16:08 294 3 gusting 6 22.8
2018-Apr-25 16:03 285 2 gusting 4 23.3
2018-Apr-25 15:58 295 2 gusting 6 23.3
2018-Apr-25 15:53 292 2 gusting 6 23.3
2018-Apr-25 15:48 288 1 gusting 4 23.3
2018-Apr-25 15:43 285 1 gusting 4 23.3
2018-Apr-25 15:38 295 1 gusting 6 23.3
2018-Apr-25 15:33 303 1 gusting 8 23.3
2018-Apr-25 15:28 294 4 gusting 8 23.3
2018-Apr-25 15:23 282 2 gusting 6 23.3
2018-Apr-25 15:18 292 2 gusting 7 23.3
2018-Apr-25 15:13 307 4 gusting 7 23.3
2018-Apr-25 15:08 277 3 gusting 7 23.3
2018-Apr-25 15:03 302 1 gusting 6 23.3
2018-Apr-25 14:58 272 2 gusting 8 23.3
2018-Apr-25 14:53 321 3 gusting 8 23.3
2018-Apr-25 14:48 294 2 gusting 6 23.3
2018-Apr-25 14:43 303 1 gusting 4 23.3
2018-Apr-25 14:38 292 1 gusting 3 23.3
2018-Apr-25 14:33 239 1 gusting 3 23.3
2018-Apr-25 14:28 223 1 gusting 4 23.3
2018-Apr-25 14:23 186 0 gusting 6 23.3
2018-Apr-25 14:18 311 1 gusting 6 22.8
2018-Apr-25 14:13 227 2 gusting 7 22.8
2018-Apr-25 14:08 355 2 gusting 7 22.8
2018-Apr-25 14:03 231 1 gusting 4 22.8
2018-Apr-25 13:58 304 1 gusting 6 22.8
2018-Apr-25 13:53 302 2 gusting 7 22.8
2018-Apr-25 13:48 225 4 gusting 7 22.8
2018-Apr-25 13:43 257 1 gusting 4 22.2
2018-Apr-25 13:38 249 0 gusting 5 21.7
2018-Apr-25 13:33 296 3 gusting 5 21.7
2018-Apr-25 13:28 290 2 gusting 7 21.7
2018-Apr-25 13:23 292 2 gusting 7 21.1
2018-Apr-25 13:18 243 2 gusting 7 21.1
2018-Apr-25 13:13 288 3 gusting 7 21.7
2018-Apr-25 13:08 280 4 gusting 7 21.7
2018-Apr-25 13:03 265 4 gusting 7 22.2
2018-Apr-25 12:58 238 2 gusting 6 22.2
2018-Apr-25 12:53 244 2 gusting 6 21.7
2018-Apr-25 12:48 194 2 gusting 6 21.7
2018-Apr-25 12:43 225 2 gusting 6 21.7
2018-Apr-25 12:38 248 2 gusting 6 21.1
2018-Apr-25 12:33 269 2 gusting 6 21.1
2018-Apr-25 12:28 273 2 gusting 6 20.6
2018-Apr-25 12:23 278 2 gusting 6 20.6
2018-Apr-25 12:18 308 2 gusting 8 20.6
2018-Apr-25 12:13 309 3 gusting 8 20.6
2018-Apr-25 12:08 281 2 gusting 6 20.6
2018-Apr-25 12:03 291 2 gusting 6 20.6
2018-Apr-25 11:58 286 2 gusting 6 20.6
2018-Apr-25 11:53 300 2 gusting 6 20.6
2018-Apr-25 11:48 290 3 gusting 6 20.6
2018-Apr-25 11:43 287 1 gusting 4 20.6
2018-Apr-25 11:38 299 1 gusting 6 20.6
2018-Apr-25 11:33 300 2 gusting 6 20.0
2018-Apr-25 11:28 299 3 gusting 6 20.6
2018-Apr-25 11:23 290 1 gusting 6 20.6
2018-Apr-25 11:18 294 0 gusting 6 20.6
2018-Apr-25 11:13 305 2 gusting 4 20.6
2018-Apr-25 11:08 279 2 gusting 5 20.6
2018-Apr-25 11:03 286 1 gusting 5 20.6
2018-Apr-25 10:58 296 2 gusting 6 20.6
2018-Apr-25 10:53 279 1 gusting 4 20.6
2018-Apr-25 10:48 281 1 gusting 5 20.0
2018-Apr-25 10:43 279 0 gusting 4 20.0
2018-Apr-25 10:38 283 0 gusting 2 19.4
2018-Apr-25 10:33 283 19.4
2018-Apr-25 10:28 283 1 gusting 3 19.4
2018-Apr-25 10:23 309 0 gusting 4 19.4
2018-Apr-25 10:18 304 1 gusting 4 19.4
2018-Apr-25 10:13 300 0 gusting 4 19.4
2018-Apr-25 10:08 309 2 gusting 4 20.0
2018-Apr-25 10:03 139 0 gusting 2 20.0
2018-Apr-25 09:58 340 0 gusting 3 19.4
2018-Apr-25 09:53 340 1 gusting 3 19.4
2018-Apr-25 09:48 296 1 gusting 2 19.4
2018-Apr-25 09:43 294 19.4
2018-Apr-25 09:38 294 0 gusting 2 18.9
2018-Apr-25 09:33 294 0 gusting 1 18.3
2018-Apr-25 09:28 294 0 gusting 1 18.3
2018-Apr-25 09:23 294 0 gusting 1 17.8
2018-Apr-25 09:18 294 17.8
2018-Apr-25 09:13 294 17.2
2018-Apr-25 09:08 294 17.2
2018-Apr-25 09:03 294 16.7
2018-Apr-25 08:58 294 16.7
2018-Apr-25 08:53 294 16.1
2018-Apr-25 08:48 294 16.1
2018-Apr-25 08:43 294 16.1
2018-Apr-25 08:38 294 0 gusting 2 16.1
2018-Apr-25 08:33 294 0 gusting 2 16.1
2018-Apr-25 08:28 294 0 gusting 4 16.1
2018-Apr-25 08:23 292 2 gusting 4 16.1
2018-Apr-25 08:18 300 0 gusting 3 16.1
2018-Apr-25 08:13 300 0 gusting 3 15.6
2018-Apr-25 08:08 094 15.6
2018-Apr-25 08:03 094 15.6
2018-Apr-25 07:58 094 15.6
2018-Apr-25 07:53 094 15.6
2018-Apr-25 07:48 094 15.6
2018-Apr-25 07:43 094 0 gusting 2 15.6
2018-Apr-25 07:38 096 0 gusting 2 15.6
2018-Apr-25 07:33 096 0 gusting 2 15.0
2018-Apr-25 07:28 034 15.0
2018-Apr-25 07:23 034 0 gusting 2 15.0
2018-Apr-25 07:18 034 15.0
2018-Apr-25 07:13 034 15.0
2018-Apr-25 07:08 034 15.0
2018-Apr-25 07:03 034 14.4
2018-Apr-25 06:58 034 14.4
2018-Apr-25 06:53 034 14.4
2018-Apr-25 06:48 034 14.4
2018-Apr-25 06:43 034 14.4
2018-Apr-25 06:38 034 14.4
2018-Apr-25 06:33 034 14.4
2018-Apr-25 06:28 034 14.4
2018-Apr-25 06:23 034 14.4
2018-Apr-25 06:18 034 14.4
2018-Apr-25 06:13 034 14.4
2018-Apr-25 06:08 034 0 gusting 1 14.4
2018-Apr-25 06:03 034 14.4
2018-Apr-25 05:58 034 0 gusting 3 14.4
2018-Apr-25 05:53 050 0 gusting 1 14.4
2018-Apr-25 05:48 050 0 gusting 1 14.4
2018-Apr-25 05:43 050 14.4
2018-Apr-25 05:38 050 1 gusting 3 14.4
2018-Apr-25 05:33 051 0 gusting 3 14.4
2018-Apr-25 05:28 040 0 gusting 3 14.4
2018-Apr-25 05:23 040 0 gusting 2 14.4
2018-Apr-25 05:18 040 0 gusting 2 14.4
2018-Apr-25 05:13 040 14.4
2018-Apr-25 05:08 040 0 gusting 2 14.4
2018-Apr-25 05:03 040 1 gusting 2 14.4
2018-Apr-25 04:58 039 0 gusting 2 14.4
2018-Apr-25 04:53 039 0 gusting 2 15.0
2018-Apr-25 04:48 039 0 gusting 2 15.0
2018-Apr-25 04:43 039 1 gusting 2 15.0
2018-Apr-25 04:38 039 0 gusting 2 15.0
2018-Apr-25 04:33 039 0 gusting 2 15.0
2018-Apr-25 04:28 039 1 gusting 2 15.0
2018-Apr-25 04:23 039 0 gusting 2 14.4
2018-Apr-25 04:18 039 14.4
2018-Apr-25 04:13 039 14.4
2018-Apr-25 04:08 039 0 gusting 3 14.4
2018-Apr-25 04:03 038 1 gusting 2 14.4
2018-Apr-25 03:58 038 0 gusting 2 14.4
2018-Apr-25 03:53 039 1 gusting 2 14.4
2018-Apr-25 03:48 039 0 gusting 2 14.4
2018-Apr-25 03:43 026 0 gusting 3 14.4
2018-Apr-25 03:38 016 1 gusting 3 14.4
2018-Apr-25 03:33 343 0 gusting 2 14.4
2018-Apr-25 03:28 342 14.4
2018-Apr-25 03:23 342 14.4
2018-Apr-25 03:18 342 14.4
2018-Apr-25 03:13 342 0 gusting 2 14.4
2018-Apr-25 03:08 342 0 gusting 2 14.4
2018-Apr-25 03:03 038 14.4
2018-Apr-25 02:58 038 14.4
2018-Apr-25 02:53 038 14.4
2018-Apr-25 02:48 038 0 gusting 1 14.4
2018-Apr-25 02:43 038 14.4
2018-Apr-25 02:38 038 14.4
2018-Apr-25 02:33 038 0 gusting 1 14.4
2018-Apr-25 02:28 038 0 gusting 1 14.4
2018-Apr-25 02:23 038 14.4
2018-Apr-25 02:18 034 14.4
2018-Apr-25 02:13 034 0 gusting 2 14.4
2018-Apr-25 02:08 031 0 gusting 1 14.4
2018-Apr-25 02:03 031 0 gusting 1 15.0
2018-Apr-25 01:58 031 15.0
2018-Apr-25 01:53 031 15.0
2018-Apr-25 01:48 031 0 gusting 1 15.0
2018-Apr-25 01:43 031 1 gusting 1 15.0
2018-Apr-25 01:38 031 15.0
2018-Apr-25 01:33 031 15.0
2018-Apr-25 01:28 031 0 gusting 2 15.0
2018-Apr-25 01:23 031 15.0
2018-Apr-25 01:18 024 0 gusting 2 15.0
2018-Apr-25 01:13 024 15.0
2018-Apr-25 01:08 024 15.0
2018-Apr-25 01:03 024 0 gusting 1 15.0
2018-Apr-25 00:58 024 15.0
2018-Apr-25 00:53 024 15.0
2018-Apr-25 00:48 024 15.0
2018-Apr-25 00:43 024 15.0
2018-Apr-25 00:38 024 0 gusting 1 15.0
2018-Apr-25 00:33 024 15.0
2018-Apr-25 00:28 024 1 gusting 3 15.0
2018-Apr-25 00:23 022 1 gusting 3 15.0
2018-Apr-25 00:18 022 0 gusting 1 15.0
2018-Apr-25 00:13 022 15.0
2018-Apr-25 00:08 022 15.0
2018-Apr-25 00:03 022 0 gusting 1 15.0
2018-Apr-24 23:58 022 15.0
2018-Apr-24 23:53 022 1 gusting 2 15.0
2018-Apr-24 23:48 022 15.0
2018-Apr-24 23:43 022 0 gusting 2 15.6
2018-Apr-24 23:38 021 0 gusting 2 15.6
2018-Apr-24 23:33 021 0 gusting 1 15.6
2018-Apr-24 23:28 021 15.6
2018-Apr-24 23:23 021 15.6
2018-Apr-24 23:18 021 15.6
2018-Apr-24 23:13 021 15.6
2018-Apr-24 23:08 021 15.6
2018-Apr-24 23:03 021 15.6
2018-Apr-24 22:58 021 0 gusting 2 15.6
2018-Apr-24 22:53 021 0 gusting 2 15.6
2018-Apr-24 22:48 021 15.6
2018-Apr-24 22:43 021 16.1
2018-Apr-24 22:38 021 0 gusting 1 16.1
2018-Apr-24 22:33 021 16.1
2018-Apr-24 22:28 021 1 gusting 2 16.1
2018-Apr-24 22:23 021 16.1
2018-Apr-24 22:18 021 0 gusting 1 16.1
2018-Apr-24 22:13 021 0 gusting 1 16.1
2018-Apr-24 22:08 021 0 gusting 1 16.1
2018-Apr-24 22:03 020 0 gusting 2 16.1
2018-Apr-24 21:58 020 0 gusting 3 16.1
2018-Apr-24 21:53 351 0 gusting 3 16.1
2018-Apr-24 21:48 306 16.1
2018-Apr-24 21:43 306 16.1
2018-Apr-24 21:38 306 0 gusting 6 16.1
2018-Apr-24 21:33 292 0 gusting 6 16.1
2018-Apr-24 21:28 063 16.1
2018-Apr-24 21:23 063 0 gusting 3 16.1
2018-Apr-24 21:18 036 1 gusting 2 16.1
2018-Apr-24 21:13 036 16.1
2018-Apr-24 21:08 036 16.1
2018-Apr-24 21:03 036 1 gusting 2 16.1
2018-Apr-24 20:58 036 16.1
2018-Apr-24 20:53 036 16.1
2018-Apr-24 20:48 036 16.1
2018-Apr-24 20:43 036 1 gusting 3 16.1
2018-Apr-24 20:38 036 1 gusting 3 16.1
2018-Apr-24 20:33 036 0 gusting 3 16.1
2018-Apr-24 20:28 036 1 gusting 3 16.1
2018-Apr-24 20:23 034 0 gusting 2 16.7
2018-Apr-24 20:18 034 0 gusting 2 16.7
2018-Apr-24 20:13 034 0 gusting 2 16.7
2018-Apr-24 20:08 034 0 gusting 2 16.7
2018-Apr-24 20:03 034 17.2
2018-Apr-24 19:58 034 17.2
2018-Apr-24 19:53 034 17.2
2018-Apr-24 19:48 034 17.2
2018-Apr-24 19:43 034 0 gusting 1 17.2
2018-Apr-24 19:38 034 17.2
2018-Apr-24 19:33 034 17.2
2018-Apr-24 19:28 034 17.2
2018-Apr-24 19:23 034 17.2
2018-Apr-24 19:18 034 17.2
2018-Apr-24 19:13 034 17.2
2018-Apr-24 19:08 034 1 gusting 2 17.2
2018-Apr-24 19:03 034 0 gusting 3 17.2
2018-Apr-24 18:58 033 1 gusting 3 17.2
2018-Apr-24 18:53 036 0 gusting 2 17.2
2018-Apr-24 18:48 044 0 gusting 2 17.2
2018-Apr-24 18:43 044 0 gusting 2 17.2
2018-Apr-24 18:38 044 17.2
2018-Apr-24 18:33 044 0 gusting 6 17.8
2018-Apr-24 18:28 025 2 gusting 5 17.8
2018-Apr-24 18:23 078 2 gusting 6 17.8
2018-Apr-24 18:18 039 2 gusting 4 18.3
2018-Apr-24 18:13 303 0 gusting 10 18.9
2018-Apr-24 18:08 310 5 gusting 10 18.9
2018-Apr-24 18:03 246 6 gusting 10 20.0
2018-Apr-24 17:58 192 5 gusting 8 20.0
2018-Apr-24 17:53 138 3 gusting 8 20.6
2018-Apr-24 17:48 157 4 gusting 8 20.6
2018-Apr-24 17:43 212 2 gusting 4 20.6
2018-Apr-24 17:38 216 0 gusting 2 20.6
2018-Apr-24 17:33 216 0 gusting 3 21.1
2018-Apr-24 17:28 215 0 gusting 4 21.1
2018-Apr-24 17:23 214 2 gusting 6 21.1
2018-Apr-24 17:18 238 3 gusting 11 21.7
2018-Apr-24 17:13 277 4 gusting 11 22.2
2018-Apr-24 17:08 302 1 gusting 6 22.8
2018-Apr-24 17:03 265 3 gusting 6 23.3
2018-Apr-24 16:58 238 3 gusting 6 23.9
2018-Apr-24 16:53 294 2 gusting 6 24.4
2018-Apr-24 16:48 326 2 gusting 6 24.4
2018-Apr-24 16:43 273 4 gusting 6 24.4
2018-Apr-24 16:38 183 3 gusting 8 25.0
2018-Apr-24 16:33 299 2 gusting 8 25.0
2018-Apr-24 16:28 315 3 gusting 7 25.0
2018-Apr-24 16:23 335 2 gusting 8 25.0
2018-Apr-24 16:18 300 3 gusting 10 25.6
2018-Apr-24 16:13 288 4 gusting 10 25.6
2018-Apr-24 16:08 355 3 gusting 10 26.1
2018-Apr-24 16:03 267 5 gusting 10 26.1
2018-Apr-24 15:58 265 4 gusting 14 26.1
2018-Apr-24 15:53 327 6 gusting 14 26.1
2018-Apr-24 15:48 325 6 gusting 11 26.1
2018-Apr-24 15:43 327 4 gusting 13 26.7
2018-Apr-24 15:38 310 6 gusting 13 26.7
2018-Apr-24 15:33 292 6 gusting 13 26.7
2018-Apr-24 15:28 134 1 gusting 12 26.7
2018-Apr-24 15:23 245 3 gusting 12 26.7
2018-Apr-24 15:18 313 2 gusting 6 26.7
2018-Apr-24 15:13 109 2 gusting 9 26.7
2018-Apr-24 15:08 295 3 gusting 11 26.7
2018-Apr-24 15:03 284 3 gusting 11 26.7
2018-Apr-24 14:58 296 2 gusting 9 26.7
2018-Apr-24 14:53 292 2 gusting 6 26.7
2018-Apr-24 14:48 292 1 gusting 9 26.7
2018-Apr-24 14:43 339 4 gusting 11 26.7
2018-Apr-24 14:38 303 5 gusting 11 26.1
2018-Apr-24 14:33 281 5 gusting 8 26.7
2018-Apr-24 14:28 290 3 gusting 8 26.7
2018-Apr-24 14:23 306 3 gusting 8 26.7
2018-Apr-24 14:18 325 4 gusting 7 26.7
2018-Apr-24 14:13 286 2 gusting 6 26.7
2018-Apr-24 14:08 284 2 gusting 6 26.7
2018-Apr-24 14:03 300 2 gusting 6 26.1
2018-Apr-24 13:58 295 3 gusting 8 26.7
2018-Apr-24 13:53 253 2 gusting 8 26.7
2018-Apr-24 13:48 300 4 gusting 6 26.1
2018-Apr-24 13:43 299 0 gusting 5 26.1
2018-Apr-24 13:38 295 2 gusting 5 26.1
2018-Apr-24 13:33 355 1 gusting 6 26.1
2018-Apr-24 13:28 061 3 gusting 5 25.6
2018-Apr-24 13:23 313 0 gusting 5 25.6
2018-Apr-24 13:18 314 2 gusting 5 25.6
2018-Apr-24 13:13 289 2 gusting 5 25.6
2018-Apr-24 13:08 288 1 gusting 7 25.6
2018-Apr-24 13:03 291 2 gusting 7 25.6
2018-Apr-24 12:58 323 0 gusting 7 25.6
2018-Apr-24 12:53 308 3 gusting 8 25.6
2018-Apr-24 12:48 315 2 gusting 7 25.6
2018-Apr-24 12:43 232 2 gusting 6 25.6
2018-Apr-24 12:38 306 3 gusting 6 25.0
2018-Apr-24 12:33 319 1 gusting 7 25.0
2018-Apr-24 12:28 311 3 gusting 6 25.0
2018-Apr-24 12:23 313 1 gusting 4 24.4
2018-Apr-24 12:18 297 2 gusting 6 24.4
2018-Apr-24 12:13 020 2 gusting 6 25.0
2018-Apr-24 12:08 264 2 gusting 6 25.0
2018-Apr-24 12:03 225 2 gusting 4 24.4
2018-Apr-24 11:58 271 0 gusting 6 24.4
2018-Apr-24 11:53 331 2 gusting 6 23.9
2018-Apr-24 11:48 242 2 gusting 4 23.9
2018-Apr-24 11:43 292 0 gusting 6 23.3
2018-Apr-24 11:38 360 2 gusting 6 23.3
2018-Apr-24 11:33 286 3 gusting 6 22.8
2018-Apr-24 11:28 229 2 gusting 6 22.8
2018-Apr-24 11:23 277 3 gusting 6 22.8
2018-Apr-24 11:18 305 1 gusting 6 22.8
2018-Apr-24 11:13 290 2 gusting 6 22.2
2018-Apr-24 11:08 267 3 gusting 6 22.2
2018-Apr-24 11:03 263 2 gusting 6 22.2
2018-Apr-24 10:58 292 1 gusting 6 22.2
2018-Apr-24 10:53 213 1 gusting 4 22.2
2018-Apr-24 10:48 224 1 gusting 5 22.2
2018-Apr-24 10:43 284 2 gusting 6 22.2
2018-Apr-24 10:38 294 2 gusting 6 22.2
2018-Apr-24 10:33 281 2 gusting 6 22.8
2018-Apr-24 10:28 227 1 gusting 6 22.8
2018-Apr-24 10:23 254 1 gusting 4 22.8
2018-Apr-24 10:18 265 1 gusting 5 22.8
2018-Apr-24 10:13 271 0 gusting 6 22.8
2018-Apr-24 10:08 277 2 gusting 6 22.2
2018-Apr-24 10:03 285 1 gusting 6 22.2
2018-Apr-24 09:58 307 3 gusting 6 22.2
2018-Apr-24 09:53 272 2 gusting 6 22.2
2018-Apr-24 09:48 252 2 gusting 6 22.2
2018-Apr-24 09:43 296 0 gusting 6 22.2
2018-Apr-24 09:38 308 1 gusting 3 22.2
2018-Apr-24 09:33 298 0 gusting 4 21.7
2018-Apr-24 09:28 297 2 gusting 4 21.7
2018-Apr-24 09:23 176 0 gusting 2 21.7
2018-Apr-24 09:18 173 1 gusting 4 21.1
2018-Apr-24 09:13 276 1 gusting 4 21.1
2018-Apr-24 09:08 300 0 gusting 4 20.6
2018-Apr-24 09:03 299 2 gusting 4 20.6
2018-Apr-24 08:58 302 0 gusting 3 20.0
2018-Apr-24 08:53 302 1 gusting 3 20.0
2018-Apr-24 08:48 292 0 gusting 4 20.0
2018-Apr-24 08:43 292 1 gusting 4 19.4
2018-Apr-24 08:38 284 19.4
2018-Apr-24 08:33 284 0 gusting 4 19.4
2018-Apr-24 08:28 286 2 gusting 4 18.9
2018-Apr-24 08:23 265 1 gusting 3 18.9
2018-Apr-24 08:18 269 1 gusting 3 18.9
2018-Apr-24 08:13 266 0 gusting 2 18.9
2018-Apr-24 08:08 266 0 gusting 2 18.9
2018-Apr-24 08:03 265 0 gusting 2 18.3
2018-Apr-24 07:58 252 18.3
2018-Apr-24 07:53 252 0 gusting 2 17.8
2018-Apr-24 07:48 251 0 gusting 1 17.8
2018-Apr-24 07:43 251 17.2
2018-Apr-24 07:38 251 1 gusting 2 17.2
2018-Apr-24 07:33 251 1 gusting 2 17.2
2018-Apr-24 07:28 251 1 gusting 4 17.2
2018-Apr-24 07:23 254 1 gusting 4 17.2
2018-Apr-24 07:18 266 1 gusting 5 17.2
2018-Apr-24 07:13 265 2 gusting 5 17.2
2018-Apr-24 07:08 268 2 gusting 6 17.2
2018-Apr-24 07:03 281 2 gusting 6 17.2
2018-Apr-24 06:58 294 0 gusting 4 17.2
2018-Apr-24 06:53 287 0 gusting 2 17.2
2018-Apr-24 06:48 360 17.2
2018-Apr-24 06:43 292 1 gusting 3 17.8
2018-Apr-24 06:38 303 1 gusting 3 17.8
2018-Apr-24 06:33 289 1 gusting 3 17.8
2018-Apr-24 06:28 279 1 gusting 2 17.8
2018-Apr-24 06:23 279 0 gusting 3 17.8
2018-Apr-24 06:18 275 1 gusting 3 18.3
2018-Apr-24 06:13 273 1 gusting 2 18.3
2018-Apr-24 06:08 044 0 gusting 2 18.3
2018-Apr-24 06:03 057 18.3
2018-Apr-24 05:58 057 18.3
2018-Apr-24 05:53 044 1 gusting 3 18.3
2018-Apr-24 05:48 024 18.3
2018-Apr-24 05:43 025 2 gusting 4 17.8
2018-Apr-24 05:38 123 2 gusting 4 17.8
2018-Apr-24 05:33 360 1 gusting 2 17.8
2018-Apr-24 05:28 360 0 gusting 2 17.8
2018-Apr-24 05:23 360 1 gusting 2 17.2
2018-Apr-24 05:18 355 0 gusting 1 17.2
2018-Apr-24 05:13 355 0 gusting 2 17.2
2018-Apr-24 05:08 355 0 gusting 2 17.2
2018-Apr-24 05:03 355 0 gusting 2 17.8
2018-Apr-24 04:58 355 0 gusting 2 17.8
2018-Apr-24 04:53 355 1 gusting 2 17.8
2018-Apr-24 04:48 355 0 gusting 3 17.8
2018-Apr-24 04:43 355 1 gusting 3 17.8
2018-Apr-24 04:38 295 17.8
2018-Apr-24 04:33 295 17.8
2018-Apr-24 04:28 295 17.8
2018-Apr-24 04:23 295 17.8
2018-Apr-24 04:18 295 17.8
2018-Apr-24 04:13 295 18.3
2018-Apr-24 04:08 295 18.3
2018-Apr-24 04:03 295 18.3
2018-Apr-24 03:58 295 18.3
2018-Apr-24 03:53 295 0 gusting 2 18.3
2018-Apr-24 03:48 295 1 gusting 3 18.3
2018-Apr-24 03:43 288 1 gusting 3 18.3
2018-Apr-24 03:38 287 1 gusting 3 18.9
2018-Apr-24 03:33 284 0 gusting 6 18.9
2018-Apr-24 03:28 263 2 gusting 6 19.4
2018-Apr-24 03:23 280 2 gusting 6 20.0
2018-Apr-24 03:18 267 1 gusting 3 20.6
2018-Apr-24 03:13 266 2 gusting 3 20.6
2018-Apr-24 03:08 221 21.1
2018-Apr-24 03:03 269 2 gusting 4 21.7
2018-Apr-24 02:58 335 0 gusting 1 21.7
2018-Apr-24 02:53 335 21.7
2018-Apr-24 02:48 333 1 gusting 4 22.2
2018-Apr-24 02:43 024 0 gusting 4 22.2
2018-Apr-24 02:38 094 22.2
2018-Apr-24 02:33 057 0 gusting 5 22.2
2018-Apr-24 02:28 043 1 gusting 5 22.2
2018-Apr-24 02:23 058 3 gusting 5 22.2
2018-Apr-24 02:18 069 1 gusting 5 21.7
2018-Apr-24 02:13 061 3 gusting 5 21.7
2018-Apr-24 02:08 052 1 gusting 3 21.7
2018-Apr-24 02:03 051 2 gusting 3 21.7
2018-Apr-24 01:58 074 1 gusting 4 21.7
2018-Apr-24 01:53 066 1 gusting 7 22.2
2018-Apr-24 01:48 066 2 gusting 7 22.2
2018-Apr-24 01:43 063 1 gusting 4 22.2
2018-Apr-24 01:38 122 2 gusting 5 22.2
2018-Apr-24 01:33 074 1 gusting 5 22.2
2018-Apr-24 01:28 044 2 gusting 4 22.2
2018-Apr-24 01:23 095 1 gusting 5 22.2
2018-Apr-24 01:18 090 1 gusting 2 22.2
2018-Apr-24 01:13 329 0 gusting 2 22.2
2018-Apr-24 01:08 329 0 gusting 6 22.2
2018-Apr-24 01:03 057 2 gusting 6 22.2
2018-Apr-24 00:58 116 0 gusting 2 22.2
2018-Apr-24 00:53 118 0 gusting 2 22.2
2018-Apr-24 00:48 119 0 gusting 2 22.2
2018-Apr-24 00:43 119 0 gusting 3 22.2
2018-Apr-24 00:38 119 1 gusting 3 22.2
2018-Apr-24 00:33 119 22.2
2018-Apr-24 00:28 119 1 gusting 6 22.2
2018-Apr-24 00:23 130 2 gusting 6 22.2
2018-Apr-24 00:18 124 1 gusting 6 22.2
2018-Apr-24 00:13 136 1 gusting 6 22.2
2018-Apr-24 00:08 111 2 gusting 6 22.2
2018-Apr-24 00:03 134 3 gusting 6 22.2
2018-Apr-23 23:58 107 1 gusting 7 21.7
2018-Apr-23 23:53 092 4 gusting 7 21.7
2018-Apr-23 23:48 083 1 gusting 5 21.7
2018-Apr-23 23:43 137 2 gusting 4 21.7
2018-Apr-23 23:38 140 2 gusting 8 21.7
2018-Apr-23 23:33 140 3 gusting 8 21.7
2018-Apr-23 23:28 151 1 gusting 6 21.7
2018-Apr-23 23:23 053 1 gusting 7 21.7
2018-Apr-23 23:18 058 3 gusting 7 21.1
2018-Apr-23 23:13 026 1 gusting 4 21.1
2018-Apr-23 23:08 140 0 gusting 2 21.1
2018-Apr-23 23:03 140 0 gusting 2 21.7
2018-Apr-23 22:58 141 21.7
2018-Apr-23 22:53 141 21.7
2018-Apr-23 22:43 141 2 gusting 3 21.7
2018-Apr-23 22:38 349 1 gusting 4 21.7
2018-Apr-23 22:33 049 1 gusting 5 21.7
2018-Apr-23 22:28 040 2 gusting 5 21.7
2018-Apr-23 22:23 077 2 gusting 5 21.1
2018-Apr-23 22:18 355 2 gusting 8 21.1
2018-Apr-23 22:13 015 2 gusting 8 21.1
2018-Apr-23 22:08 038 1 gusting 4 21.1
2018-Apr-23 22:03 062 21.1
2018-Apr-23 21:58 062 21.1
2018-Apr-23 21:53 062 21.1
2018-Apr-23 21:48 062 0 gusting 1 21.1
2018-Apr-23 21:43 062 21.1
2018-Apr-23 21:38 062 0 gusting 2 21.1
2018-Apr-23 21:33 062 21.1
2018-Apr-23 21:28 062 0 gusting 1 21.1
2018-Apr-23 21:23 062 0 gusting 2 21.1
2018-Apr-23 21:18 062 0 gusting 2 21.1
2018-Apr-23 21:13 062 21.1
2018-Apr-23 21:08 062 21.1
2018-Apr-23 21:03 062 1 gusting 4 21.1
2018-Apr-23 20:58 067 1 gusting 4 21.1
2018-Apr-23 20:53 028 1 gusting 2 21.1
2018-Apr-23 20:48 028 0 gusting 2 21.1
2018-Apr-23 20:43 028 1 gusting 3 21.1
2018-Apr-23 20:38 028 0 gusting 5 21.1
2018-Apr-23 20:33 069 3 gusting 5 21.1
2018-Apr-23 20:28 092 1 gusting 3 21.7
2018-Apr-23 20:23 014 1 gusting 3 21.7
2018-Apr-23 20:18 005 1 gusting 5 21.7
2018-Apr-23 20:13 032 2 gusting 5 22.2
2018-Apr-23 20:08 229 0 gusting 3 22.2
2018-Apr-23 20:03 225 1 gusting 4 22.2
2018-Apr-23 19:58 309 1 gusting 4 22.8
2018-Apr-23 19:53 328 0 gusting 2 22.8
2018-Apr-23 19:48 327 0 gusting 3 22.8
2018-Apr-23 19:43 327 0 gusting 6 23.3
2018-Apr-23 19:38 300 2 gusting 9 23.3
2018-Apr-23 19:33 294 3 gusting 10 23.9
2018-Apr-23 19:28 294 5 gusting 10 24.4
2018-Apr-23 19:18 296 1 gusting 6 25.0
2018-Apr-23 19:13 299 2 gusting 6 25.0
2018-Apr-23 19:08 295 2 gusting 6 25.0
2018-Apr-23 19:03 265 1 gusting 6 25.6
2018-Apr-23 18:58 230 1 gusting 5 25.6
2018-Apr-23 18:53 318 1 gusting 8 25.6
2018-Apr-23 18:48 090 2 gusting 11 25.6
2018-Apr-23 18:43 095 2 gusting 11 25.6
2018-Apr-23 18:38 065 2 gusting 9 25.0
2018-Apr-23 18:33 057 1 gusting 9 25.0
2018-Apr-23 18:28 355 3 gusting 9 25.0
2018-Apr-23 18:23 094 3 gusting 6 25.6
2018-Apr-23 18:18 202 2 gusting 5 26.1
2018-Apr-23 18:13 051 1 gusting 5 26.1
2018-Apr-23 18:08 039 1 gusting 6 26.1
2018-Apr-23 18:03 049 1 gusting 6 26.1
2018-Apr-23 17:58 069 3 gusting 8 26.1
2018-Apr-23 17:53 046 2 gusting 8 26.1
2018-Apr-23 17:48 035 4 gusting 8 26.1
2018-Apr-23 17:43 057 3 gusting 11 26.7
2018-Apr-23 17:38 054 5 gusting 11 26.7
2018-Apr-23 17:33 070 5 gusting 8 27.2
2018-Apr-23 17:28 038 4 gusting 8 27.2
2018-Apr-23 17:23 049 2 gusting 6 27.2
2018-Apr-23 17:19 050 2 gusting 8 27.8
2018-Apr-23 17:14 044 3 gusting 8 27.8
2018-Apr-23 17:08 057 2 gusting 9 27.8
2018-Apr-23 17:03 041 3 gusting 12 27.8
2018-Apr-23 16:58 041 6 gusting 12 27.8
2018-Apr-23 16:53 043 4 gusting 11 28.3
2018-Apr-23 16:48 039 3 gusting 8 28.3
2018-Apr-23 16:43 054 3 gusting 8 28.3
2018-Apr-23 16:38 078 3 gusting 12 28.3
2018-Apr-23 16:33 024 4 gusting 12 28.3
2018-Apr-23 16:28 091 4 gusting 10 28.3
2018-Apr-23 16:23 150 4 gusting 11 28.3
2018-Apr-23 16:18 080 5 gusting 11 28.3
2018-Apr-23 16:13 020 3 gusting 8 28.3
2018-Apr-23 16:08 093 4 gusting 13 28.3
2018-Apr-23 16:03 056 6 gusting 13 28.3